Weather History for Meadville, PA

Change the Weather History Date:

Saturday, October 19, 2013

  Actual Average Record
Temperature  
Mean Temperature 47 °F -  
Max Temperature 53 °F 57 °F 82 °F (1950)
Min Temperature 41 °F 37 °F 23 °F (1974)
Degree Days  
Heating Degree Days 18    
Moisture  
Dew Point 41 °F    
Average Humidity 84    
Maximum Humidity 93    
Minimum Humidity 66    
Precipitation  
Precipitation 0.35 in - - ()
Sea Level Pressure  
Sea Level Pressure 29.81 in    
Wind  
Wind Speed 6 mph (SW)    
Max Wind Speed 16 mph    
Max Gust Speed 25 mph    
Visibility 9 miles    
Events Rain    
Averages and records for this station are not official NWS values.
T = Trace of Precipitation, MM = Missing Value Source: NWS Daily Summary

Daily Weather History Graph

Daily Weather History Graph

Search for Another Location

Airport:

Trip Planner

Search our weather history database for the weather conditions in past years. The results will help you decide how hot, cold, wet, or windy it might be!

Date:

Astronomy

Oct. 19, 2013 Rise Set
Actual Time 7:37 AM EDT 6:33 PM EDT
Civil Twilight 7:09 AM EDT 7:01 PM EDT
Nautical Twilight 6:37 AM EDT 7:33 PM EDT
Astronomical Twilight 6:05 AM EDT 8:05 PM EDT
Moon 6:58 PM EDT (10/19) 8:14 AM EDT (10/19)
Length of Visible Light 11h 51m
Length of Day
10h 55m
Waxing Gibbous, 99% of the Moon is Illuminated
Oct 19
Waxing Gibbous
Oct 26
Last Quarter
Nov 3
New
Nov 10
First Quarter
Nov 17
Full

Hourly Weather History & Observations

Time (EDT) Temp. Windchill Dew Point Humidity Pressure Visibility Wind Dir Wind Speed Gust Speed Precip Events Conditions
12:53 AM 48.0 °F - 39.0 °F 71% 29.93 in 10.0 mi Variable 3.5 mph - N/A   Clear
1:53 AM 48.9 °F - 39.0 °F 69% 29.92 in 10.0 mi Variable 4.6 mph - N/A   Mostly Cloudy
2:53 AM 48.0 °F - 39.0 °F 71% 29.92 in 10.0 mi Variable 4.6 mph - N/A   Clear
3:53 AM 48.0 °F - 39.9 °F 74% 29.91 in 10.0 mi South 3.5 mph - N/A   Mostly Cloudy
4:53 AM 46.0 °F 44.8 °F 39.9 °F 79% 29.90 in 10.0 mi South 3.5 mph - N/A   Clear
5:53 AM 46.0 °F - 39.9 °F 79% 29.89 in 10.0 mi Calm Calm - N/A   Mostly Cloudy
6:53 AM 45.0 °F 43.5 °F 39.9 °F 82% 29.87 in 10.0 mi South 3.5 mph - N/A   Clear
7:53 AM 46.0 °F 44.8 °F 39.9 °F 79% 29.85 in 10.0 mi Variable 3.5 mph - N/A   Clear
8:53 AM 46.9 °F - 39.9 °F 77% 29.85 in 10.0 mi Variable 3.5 mph - N/A   Mostly Cloudy
9:53 AM 48.9 °F - 41.0 °F 74% 29.84 in 10.0 mi South 4.6 mph - N/A   Scattered Clouds
10:53 AM 51.1 °F - 42.1 °F 71% 29.82 in 10.0 mi South 6.9 mph - N/A   Mostly Cloudy
11:53 AM 52.0 °F - 43.0 °F 71% 29.79 in 10.0 mi South 8.1 mph - N/A   Mostly Cloudy
12:53 PM 53.1 °F - 42.1 °F 66% 29.77 in 10.0 mi SSW 8.1 mph - N/A   Overcast
1:53 PM 50.0 °F - 45.0 °F 83% 29.75 in 8.0 mi SW 5.8 mph - 0.02 in Rain Light Rain
2:53 PM 50.0 °F - 46.0 °F 86% 29.72 in 10.0 mi Calm Calm - 0.00 in   Overcast
3:26 PM 50.0 °F - 46.4 °F 87% 29.70 in 10.0 mi SSW 3.5 mph - 0.00 in   Overcast
3:53 PM 50.0 °F - 46.0 °F 86% 29.71 in 3.0 mi SW 4.6 mph - 0.03 in Rain Rain
4:02 PM 50.0 °F - 46.4 °F 87% 29.70 in 2.0 mi SW 3.5 mph - 0.02 in Rain Rain
4:14 PM 48.2 °F - 46.4 °F 93% 29.70 in 1.5 mi SW 3.5 mph - 0.06 in Rain Heavy Rain
4:32 PM 48.2 °F - 46.4 °F 93% 29.69 in 1.0 mi West 9.2 mph - 0.16 in Rain Heavy Rain
4:53 PM 46.0 °F 40.6 °F 44.1 °F 93% 29.73 in 5.0 mi West 11.5 mph - 0.21 in Rain Rain
5:16 PM 44.6 °F 38.8 °F 42.8 °F 93% 29.72 in 5.0 mi West 11.5 mph 20.7 mph 0.04 in Rain Rain
5:48 PM 44.6 °F 37.8 °F 41.0 °F 87% 29.74 in 10.0 mi West 15.0 mph 25.3 mph 0.05 in Rain Light Rain
5:53 PM 44.1 °F 36.8 °F 41.0 °F 89% 29.76 in 10.0 mi WSW 16.1 mph 20.7 mph 0.05 in   Overcast
6:11 PM 44.6 °F 38.4 °F 41.0 °F 87% 29.76 in 10.0 mi WSW 12.7 mph - N/A   Overcast
6:51 PM 42.8 °F 37.5 °F 39.2 °F 87% 29.77 in 10.0 mi WSW 9.2 mph - 0.01 in   Overcast
6:53 PM 43.0 °F 37.2 °F 39.9 °F 89% 29.79 in 10.0 mi WSW 10.4 mph - 0.01 in   Overcast
7:07 PM 42.8 °F 36.2 °F 39.2 °F 87% 29.78 in 10.0 mi WSW 12.7 mph 21.9 mph N/A   Overcast
7:53 PM 42.1 °F 37.7 °F 39.9 °F 92% 29.82 in 10.0 mi WSW 6.9 mph 17.3 mph N/A   Overcast
8:53 PM 42.1 °F 37.1 °F 39.9 °F 92% 29.84 in 10.0 mi WSW 8.1 mph - 0.00 in Rain Light Rain
9:08 PM 42.8 °F 36.6 °F 39.2 °F 87% 29.83 in 10.0 mi WSW 11.5 mph 17.3 mph 0.00 in   Overcast
9:49 PM 41.0 °F 35.2 °F 39.2 °F 93% 29.85 in 10.0 mi WSW 9.2 mph 17.3 mph 0.01 in Rain Light Rain
9:53 PM 41.0 °F 35.2 °F 39.0 °F 93% 29.87 in 10.0 mi WSW 9.2 mph - 0.01 in Rain Light Rain
10:08 PM 41.0 °F 38.0 °F 39.2 °F 93% 29.86 in 10.0 mi SW 4.6 mph - 0.00 in   Overcast
10:53 PM 41.0 °F 34.3 °F 37.9 °F 89% 29.88 in 10.0 mi SW 11.5 mph 20.7 mph 0.01 in Rain Light Rain
11:01 PM 41.0 °F 35.2 °F 37.4 °F 87% 29.86 in 8.0 mi SW 9.2 mph - 0.00 in Rain Light Rain
11:24 PM 41.0 °F 36.4 °F 37.4 °F 87% 29.88 in 8.0 mi WSW 6.9 mph - 0.01 in Rain Light Rain
11:53 PM 41.0 °F 38.0 °F 39.0 °F 93% 29.89 in 10.0 mi SW 4.6 mph - 0.01 in   Overcast